Regional Weather Roundup
Issued by NWS

Home | Current Version | Previous Version | Text Only | Print | Product List | Glossary On
Versions: 1 2 3 4 5 6 7 8 9 10 11 12 13 14 15 16 17 18 19 20 21 22 23 24 25 26 27 28 29 30 31 32 33 34 35 36 37 38 39 40 41 42 43 44 45 46 47 48 49 50
078
ASUS44 KLIX 200310
RWRLA
LOUISIANA WEATHER ROUNDUP
NATIONAL WEATHER SERVICE NEW ORLEANS LA
1000 PM CDT TUE AUG 19 2014

NOTE: "FAIR" INDICATES FEW OR NO CLOUDS BELOW 12,000 FEET WITH NO
      SIGNIFICANT WEATHER AND/OR OBSTRUCTIONS TO VISIBILITY.
      SKY/WX - SKY CONDITION AND SIGNIFICANT WEATHER.
      TMP - AIR TEMPERATURE.    DP   - DEWPOINT TEMPERATURE.
      RH  - RELATIVE HUMIDITY.  PRES - PRESSURE.
      HX  - HEAT INDEX.         WCI  - WIND CHILL INDEX.

*  THESE STATIONS ARE NOT NWS OR FAA STATIONS AND ARE NOT UNDER
   NWS QUALITY CONTROL.

LAZ040-048-061>063-065-066-069-200400-
SOUTHEAST LOUISIANA

CITY           SKY/WX    TMP DP  RH WIND       PRES   REMARKS
N.O. AUDUBON     N/A     84  77  78 MISG        N/A
N.O. INTL ARPT MOCLDY    82  74  76 CALM      29.99R
N.O. LAKEFRONT PTCLDY    85  74  69 W6        30.00R
N.O. DOWNTOWN* FAIR      86  72  62 S3        30.00R
SLIDELL        PTCLDY    79  74  84 CALM      29.98R
BATON ROUGE    MOCLDY    77  70  79 CALM      29.98R
BOOTHVILLE     PTCLDY    85  75  72 S7        30.01R
BELLE CHASSE   MOCLDY    79  75  87 CALM      29.99R
BOGALUSA*      FAIR      79  73  82 S3        30.00R
GALLIANO*      NOT AVBL
NEW ROADS*     FAIR      75  73  93 CALM      29.97S
GONZALES*      FAIR      76  76 100 CALM      29.98R
HAMMOND*       PTCLDY    79  72  78 CALM      29.99S
HOUMA*         MOCLDY    78  73  84 CALM      29.98R
PORT FOURCHON* CLEAR     86  75  70 CALM      30.00R HX  95

$$

LAZ041-044-053-054-200400-
SOUTHWEST LOUISIANA

CITY           SKY/WX    TMP DP  RH WIND       PRES   REMARKS
LAKE CHARLES   MOCLDY    76  74  93 SE3       29.95S
LAFAYETTE      MOCLDY    76  74  93 CALM      29.97R
PATTERSON      MOCLDY   N/A N/A N/A MISG        N/A
SALT POINT       N/A     82  77  84 CALM      29.97R
NEW IBERIA     MOCLDY    76  73  91 CALM      29.98R
CHENAULT AIRPK MOCLDY    73  73 100 CALM      29.96F

$$

LAZ027-028-200400-
CENTRAL LOUISIANA

CITY           SKY/WX    TMP DP  RH WIND       PRES   REMARKS
FORT POLK      CLOUDY    74  73  97 SE3       29.94
ALEXANDRIA INT MOCLDY    75  72  90 CALM      29.94R
ALEXANDRIA     PTCLDY    76  73  91 SE5       29.96R

$$

LAZ001-002-200400-
NORTHWEST LOUISIANA

CITY           SKY/WX    TMP DP  RH WIND       PRES   REMARKS
SHREVEPORT     CLOUDY    76  68  76 SE5       29.91S
BARKSDALE AFB  CLOUDY    77  68  75 SE7       29.92S
DTN SHREVEPORT CLOUDY    79  65  62 S7        29.91F

$$

LAZ014-016-200400-
NORTHEAST LOUISIANA

CITY           SKY/WX    TMP DP  RH WIND       PRES   REMARKS
MONROE         CLOUDY    81  71  71 SW7       29.94R
TALLULAH       MOCLDY    81  75  82 SW5       29.94R

$$




USA.gov is the U.S. government's official web portal to all federal, state and local government web resources and services.